This is the latest recevied weather packets stored in our database for station/object IW2NIA-3. If no packets are shown the sender has not sent any weather packets the latest 10 day(s).
| Time | Temp. | Humidity | Pressure | Rain* | Wind** | Luminosity | Snow |
|---|---|---|---|---|---|---|---|
| 1788033826 | 21.67° C | 73% | 1013.5 hPa | 0 mm | - | - | - |
| 1788032917 | 22.22° C | 74% | 1013.3 hPa | 0 mm | - | - | - |
| 1788032008 | 23.33° C | 72% | 1013.1 hPa | 0 mm | - | - | - |
| 1788031127 | 23.33° C | 69% | 1013.1 hPa | 0 mm | - | - | - |
| 1788030217 | 24.44° C | 65% | 1012.9 hPa | 0 mm | - | - | - |
| 1788029310 | 25° C | 64% | 1012.7 hPa | 0 mm | - | - | - |
| 1788028424 | 25° C | 62% | 1012.6 hPa | 0 mm | - | - | - |
| 1788027527 | 25.56° C | 57% | 1012.6 hPa | 0 mm | - | - | - |
| 1788026616 | 26.67° C | 51% | 1012.4 hPa | 0 mm | - | - | - |
| 1788025712 | 27.22° C | 51% | 1012.3 hPa | 0 mm | - | - | - |
| 1788024814 | 27.78° C | 50% | 1012.2 hPa | 0 mm | - | - | - |
| 1788023908 | 27.78° C | 49% | 1012.2 hPa | 0 mm | - | - | - |
| 1788023021 | 28.33° C | 48% | 1012.3 hPa | 0 mm | - | - | - |
| 1788022118 | 28.89° C | 45% | 1012.3 hPa | 0 mm | - | - | - |
| 1788021215 | 29.44° C | 42% | 1012.3 hPa | 0 mm | - | - | - |
| 1788020320 | 30° C | 41% | 1012.2 hPa | 0 mm | - | - | - |
| 1788019410 | 30° C | 40% | 1012.3 hPa | 0 mm | - | - | - |
| 1788018507 | 30° C | 41% | 1012.3 hPa | 0 mm | - | - | - |
| 1788017624 | 30° C | 42% | 1012.4 hPa | 0 mm | - | - | - |
| 1788016722 | 30° C | 43% | 1012.4 hPa | 0 mm | - | - | - |
| 1788015813 | 30° C | 42% | 1012.4 hPa | 0 mm | - | - | - |
| 1788014911 | 30° C | 45% | 1012.4 hPa | 0 mm | - | - | - |
| 1788014012 | 29.44° C | 45% | 1012.5 hPa | 0 mm | - | - | - |
| 1788013113 | 30° C | 45% | 1012.5 hPa | 0 mm | - | - | - |
| 1788012227 | 30° C | 42% | 1012.6 hPa | 0 mm | - | - | - |
* Rain latest hour (hover to see other rain measurements)
** Current wind speed in m/s (hover to see current wind gust speed)